Back to catalog

STARLINK-33863

AliveCommunicationsVLEO
NORAD 63864·PAYLOAD·🇺🇸 United States

Launched May 10, 2025 from Vandenberg Space Force Base

Loading…

Next Passes (next 24 hours)

TLE

FreshSource: CelesTrak SupGP

Epoch: Sep 14, 2026, 14:10 UTC

1 63864C 25094A   26257.59076389  .00028906  00000+0  10054-2 0  2579
2 63864  69.9989 116.7468 0003135 266.5065 130.3594 15.29569884    17

Track STARLINK-33863 in real time with AllMySat

Download on the App Store